パンスターズ彗星

C/2016 A1 ( PanSTARRS )

English version
Home page
Updated on February 13, 2018

---------------------------------------------------------------------

・ プロフィール

発見日 2016年1月1日
発見光度 19.3等
発見者 Pan-STARRS 1 telescope (Haleakala)

・ 写真集

・ 軌道要素

Epoch 2017 Nov. 23.0 TT = JDT 2458080.5
T 2017 Nov. 23.36599 TT                                 MPCW
q   5.3278022            (2000.0)            P               Q
z  -0.0003765      Peri.   10.31953     -0.53513987     +0.51120262
 +/-0.0000006      Node   128.17453     +0.70123509     -0.17511549
e   1.0020057      Incl.  121.18571     +0.47105697     +0.84143119
From 1201 observations 2016 Jan. 1-2018 Jan. 27, mean residual 0".5.

・ 星図

・ 光度変化

        m1 = 5.5 + 5 logΔ + 10.0 log r

---------------------------------------------------------------------

軌道要素はM.P.E.C. 2018-B155に掲載されたものです。
星図はステラナビゲータ Ver.10 (アストロアーツ) で作成したものです。
光度グラフはComet for Windowsで作成したものです。

---------------------------------------------------------------------

Copyright(C) Seiichi Yoshida (comet@aerith.net). All rights reserved.